Airfield :
LOGIN :

Register | Disclaimer

   EN    FR    IT 

 










Legend :    VFR   Marginal VFR   IFR   Intensive IFR   Very Intensive IFR
Visi :
Ceiling :
>= 8 km
>= 3000ft
5 to 8 km
1000 to 3000 ft
1500m to 5 km
500 to 1000 ft
800 to 1500m
200 to 500 ft
< 800m
< 200 ft
Symbols :   Thunderstorms  Fog  Heavy snow  Heavy precipitations  Wind > 20 kt
SIGMETs :     Misc.  Thunderstorms  Icing  Turbulence  Mountain Waves  Volcanic Ashes







- Airport Elevation : 741 ft
- IATA code : PED


LKPD - Pardubice AB

CURRENT METAR :
  • 211100Z 24012KT 200V270 CAVOK 31/11 Q1011 NOSIG

EXPIRED METARs :
  • 211000Z 24009KT 200V280 CAVOK 30/11 Q1011 NOSIG RMK BLU BLU

TAF TAF LKPD
Valid from the 21 at 12:00 until the 22 at 12:00 UTC


211100Z 2112/2212 24012G26KT CAVOK
TEMPO 2114/2118 32018G36KT 6000 SHRA BKN040TCU
PROB40
TEMPO 2114/2117 32022G44KT 5000 TSRA BKN035CB
BECMG 2123/2201 28008KT
BECMG 2205/2207 28012G24KT BKN040
No reported NOTAMs for that airfield.



MET'MAP, your aeronautical weather chart ! - Copyright ORBIFLY December 2007 - Disclaimer

ORBIFLY MET'MAP TEAM :

Programming & Development : Alexandra Zaïnal
Concept & Development : Baudouin d'Aumeries
Co-Development & Prog : Marc-Olivier Méhu
Technical & hardware support : Manuel Goepfert

Contact : metmap@orbifly.com




SOURCES & CREDITS :

   NOAA